BEIDOU M6

Last updated on Tue Apr 02 2019 03:15:24 GMT+0000 (Coordinated Universal Time)

1 38775U 12050B 19090.93141219 .00000006 00000-0 00000+0 0 9992 2 38775 54.9355 151.2575 0022979 245.9641 36.6450 1.86232149 44603

Satellite not in orbit

BEIDOU M6